Location: Cisewo
(53.3833°N, 14.9000°E)
Time: 05:40:30
(UTC+00:00)

NOAA 18 - Pass Details

Date: 25 September 2021
Orbit: 841 x 860 km, 99.0° (Epoch: 17 October)

Event Time Altitude Azimuth Distance (km) Brightness Sun altitude
Exits shadow 21:25:30 26° 278° (W) 1,607 6.9 -34.8°
Drops below altitude 10° 21:29:32 10° 325° (NW) 2,483 8.4 -35.1°
Sets 21:32:18 0° 337° (NNW) 3,427 9.4 -35.3°
